Tracking 20942 objects as of 15-Jul-2020
HD Live streaming from Space Station
objects crossing your sky now

ARIANE 42P DEB

Track ARIANE 42P DEB now!
10-day predictions


NORAD ID: 44510
Int'l Code: 1992-052H
Perigee: 1,289.0 km
Apogee: 1,434.7 km
Inclination: 66.1 °
Period: 112.8 minutes
Semi major axis: 7732 km
RCS: Unknown
Launch date: August 10, 1992
Source: France (FR)
Launch site: FRENCH GUIANA (FRGUI)

Note: This is SATELLITE DEBRIS
aabbcc
Your satellite tracking list
Your tracking list is empty




NASA's NSSDC Master Catalog

Two Line Element Set (TLE):
1 44510U 92052H   20196.12465688 +.00000446 +00000-0 +22871-2 0  9996
2 44510 066.0604 093.9423 0094229 209.6637 149.9013 12.76711261042857
Source of the keplerian elements: AFSPC